Delta, CO

12:48 PM MST on November 20, 2017 (GMT -0700)
Delta

Weather History for KAJZ - August, 2014

Change the Weather History Date:

Tuesday, August 12, 2014

  Actual Average (KMTJ) Record (KMTJ)
Temperature  
Mean Temperature 74 °F -  
Max Temperature 89 °F 85 °F 95 °F (1996)
Min Temperature 59 °F 53 °F 48 °F (1999)
Cooling Degree Days 9    
Growing Degree Days 24 (Base 50)    
Moisture  
Dew Point 47 °F    
Average Humidity 41    
Maximum Humidity 59    
Minimum Humidity 21    
Precipitation  
Precipitation 0.00 in - - ()
Sea Level Pressure  
Sea Level Pressure 30.27 in    
Wind  
Wind Speed 4 mph (NE)    
Max Wind Speed 20 mph    
Max Gust Speed 28 mph    
Visibility 8 miles    
Events Thunderstorm    
Averages and records for this station are not official NWS values.
T = Trace of Precipitation, MM = Missing Value Source: NWS Daily Summary

Daily Weather History Graph

Daily Weather History Graph

Search for Another Location

Airport or City:

Trip Planner

Search our weather history database for the weather conditions in past years. The results will help you decide how hot, cold, wet, or windy it might be!

Date:

Astronomy

Aug. 12, 2014 Rise Set
Actual Time 6:23 AM MDT 8:10 PM MDT
Civil Twilight 5:54 AM MDT 8:39 PM MDT
Nautical Twilight 5:19 AM MDT 9:13 PM MDT
Astronomical Twilight 4:42 AM MDT 9:50 PM MDT
Moon 9:22 PM MDT (8/12) 8:42 AM MDT (8/12)
Length of Visible Light 14h 44m
Length of Day
13h 47m
Waning Gibbous, 94% of the Moon is Illuminated
Aug 12
Waning Gibbous
Aug 17
Last Quarter
Aug 25
New
Sep 2
First Quarter
Sep 8
Full

Hourly Weather History & Observations

Time (MDT) Temp. Dew Point Humidity Pressure Visibility Wind Dir Wind Speed Gust Speed Precip Events Conditions
12:15 AM 69.1 °F 45.3 °F 42% 30.27 in 10.0 mi Calm Calm - N/A   Clear
12:35 AM 67.5 °F 45.3 °F 45% 30.27 in 10.0 mi Calm Calm - N/A   Clear
12:55 AM 67.5 °F 44.6 °F 44% 30.27 in 10.0 mi Calm Calm - N/A   Clear
1:15 AM 65.5 °F 46.9 °F 51% 30.28 in 10.0 mi Calm Calm - N/A   Clear
1:35 AM 67.5 °F 43.2 °F 41% 30.28 in 7.0 mi East 3.5 mph - N/A   Clear
1:55 AM 64.9 °F 46.4 °F 51% 30.27 in 10.0 mi NE 5.8 mph - N/A   Clear
2:15 AM 63.5 °F 45.1 °F 51% 30.28 in 10.0 mi ENE 4.6 mph - N/A   Clear
2:35 AM 63.7 °F 46.2 °F 53% 30.28 in 10.0 mi NNE 4.6 mph - N/A   Clear
2:55 AM 66.2 °F 45.9 °F 48% 30.28 in 7.0 mi Calm Calm - N/A   Clear
3:15 AM 65.5 °F 43.9 °F 46% 30.29 in 10.0 mi SSE 4.6 mph - N/A   Clear
3:35 AM 61.9 °F 44.2 °F 52% 30.29 in 10.0 mi Calm Calm - N/A   Clear
3:55 AM 63.3 °F 45.0 °F 51% 30.30 in 10.0 mi Calm Calm - N/A   Clear
4:15 AM 62.2 °F 47.5 °F 58% 30.30 in 7.0 mi NNE 5.8 mph - N/A   Clear
4:35 AM 61.7 °F 46.4 °F 57% 30.30 in 10.0 mi ENE 3.5 mph - N/A   Clear
4:55 AM 60.6 °F 44.2 °F 55% 30.30 in 7.0 mi ENE 3.5 mph - N/A   Clear
5:15 AM 61.2 °F 43.7 °F 53% 30.30 in 7.0 mi Calm Calm - N/A   Clear
5:35 AM 61.0 °F 44.6 °F 55% 30.30 in 7.0 mi Calm Calm - N/A   Clear
5:55 AM 60.3 °F 45.0 °F 57% 30.31 in 5.0 mi Calm Calm - N/A   Haze
6:15 AM 59.2 °F 44.8 °F 59% 30.31 in 7.0 mi Calm Calm - N/A Thunderstorm Clear
6:35 AM 60.1 °F 44.8 °F 57% 30.32 in 7.0 mi Calm Calm - N/A   Clear
6:55 AM 60.4 °F 45.5 °F 58% 30.33 in 7.0 mi NE 4.6 mph - N/A   Clear
7:15 AM 63.7 °F 44.1 °F 49% 30.34 in 7.0 mi ENE 4.6 mph - N/A   Clear
7:35 AM 64.6 °F 44.2 °F 48% 30.33 in 7.0 mi NE 8.1 mph - N/A   Clear
8:15 AM 69.6 °F 43.7 °F 39% 30.34 in 7.0 mi ENE 4.6 mph - N/A   Clear
8:35 AM 70.7 °F 43.2 °F 37% 30.34 in 10.0 mi East 4.6 mph - N/A   Clear
9:15 AM 74.1 °F 42.1 °F 32% 30.33 in 7.0 mi NE 3.5 mph - N/A   Clear
9:35 AM 76.3 °F 41.7 °F 29% 30.33 in 5.0 mi ENE 4.6 mph - N/A   Haze
11:35 AM 86.2 °F 42.8 °F 22% 30.29 in 7.0 mi ESE 3.5 mph - N/A   Clear
11:55 AM 86.9 °F 43.9 °F 22% 30.28 in 5.0 mi SW 4.6 mph - N/A   Haze
12:15 PM 88.9 °F 44.4 °F 21% 30.26 in 5.0 mi SSW 5.8 mph - N/A   Haze
12:35 PM 89.4 °F 45.3 °F 22% 30.25 in 7.0 mi SSW 8.1 mph - N/A Thunderstorm Clear
12:55 PM 89.6 °F 45.7 °F 22% 30.24 in 7.0 mi SSW 10.4 mph - N/A   Clear
1:15 PM 87.3 °F 46.9 °F 25% 30.23 in 7.0 mi SSW 9.2 mph - N/A   Clear
2:15 PM 89.6 °F 46.2 °F 22% 30.22 in 7.0 mi SSW 9.2 mph - N/A Thunderstorm Thunderstorm
2:35 PM 86.0 °F 48.7 °F 27% 30.23 in 5.0 mi SSW 12.7 mph 21.9 mph N/A Thunderstorm Haze
2:55 PM 84.0 °F 47.5 °F 28% 30.23 in 7.0 mi SW 18.4 mph 27.6 mph N/A   Clear
3:15 PM 82.4 °F 46.9 °F 29% 30.23 in 7.0 mi WSW 19.6 mph 25.3 mph N/A   Clear
4:15 PM 80.8 °F 46.4 °F 30% 30.23 in 7.0 mi WSW 10.4 mph - N/A   Overcast
4:35 PM 79.7 °F 47.5 °F 32% 30.22 in 7.0 mi West 12.7 mph 16.1 mph N/A Thunderstorm Mostly Cloudy
5:55 PM 78.4 °F 48.0 °F 34% 30.23 in 7.0 mi SW 13.8 mph - N/A   Clear
6:15 PM 78.8 °F 48.2 °F 34% 30.22 in 10.0 mi West 10.4 mph - N/A   Clear
6:35 PM 78.8 °F 47.7 °F 33% 30.22 in 10.0 mi West 6.9 mph - N/A   Clear
6:55 PM 78.8 °F 47.3 °F 33% 30.21 in 10.0 mi West 5.8 mph - N/A   Scattered Clouds
7:15 PM 78.6 °F 47.3 °F 33% 30.21 in 7.0 mi NNW 5.8 mph - N/A Thunderstorm Mostly Cloudy
7:35 PM 77.9 °F 48.0 °F 35% 30.22 in 10.0 mi NE 9.2 mph - N/A   Scattered Clouds
7:55 PM 77.4 °F 48.6 °F 36% 30.22 in 10.0 mi NE 8.1 mph - N/A   Clear
8:15 PM 76.6 °F 49.1 °F 38% 30.22 in 10.0 mi ENE 4.6 mph - N/A   Clear
8:35 PM 75.7 °F 50.4 °F 41% 30.23 in 10.0 mi Calm Calm - N/A   Clear
8:55 PM 74.3 °F 51.4 °F 45% 30.23 in 10.0 mi NNE 4.6 mph - N/A   Clear
9:15 PM 74.5 °F 50.7 °F 43% 30.23 in 10.0 mi NNE 6.9 mph - N/A   Clear
9:35 PM 73.4 °F 51.8 °F 47% 30.24 in 10.0 mi NE 4.6 mph - N/A   Clear
9:55 PM 72.9 °F 50.4 °F 45% 30.25 in 10.0 mi ENE 5.8 mph - N/A   Scattered Clouds
10:15 PM 72.7 °F 50.0 °F 45% 30.25 in 10.0 mi NNE 4.6 mph - N/A   Clear
10:35 PM 72.7 °F 50.4 °F 45% 30.24 in 10.0 mi NE 5.8 mph - N/A   Clear
10:55 PM 72.3 °F 49.3 °F 44% 30.23 in 7.0 mi NE 4.6 mph - N/A   Clear
11:15 PM 71.4 °F 50.2 °F 47% 30.23 in 10.0 mi NE 3.5 mph - N/A   Clear
11:35 PM 69.1 °F 51.8 °F 54% 30.23 in 7.0 mi Calm Calm - N/A   Clear
11:55 PM 69.8 °F 49.6 °F 49% 30.23 in 10.0 mi NE 6.9 mph - N/A   Clear